Year,Month,Day,Hour,Minute,Value (Times are PST for temperature in C)
2016,04,22,00,00,12.80
2016,04,22,00,01,12.80
2016,04,22,00,02,12.80
2016,04,22,00,03,12.80
2016,04,22,00,04,12.80
2016,04,22,00,05,12.80
2016,04,22,00,06,12.70
2016,04,22,00,07,12.70
2016,04,22,00,08,12.70
2016,04,22,00,09,12.70
2016,04,22,00,10,12.70
2016,04,22,00,11,12.70
2016,04,22,00,12,12.70
2016,04,22,00,13,12.70
2016,04,22,00,14,12.70
2016,04,22,00,15,12.70
2016,04,22,00,16,12.70
2016,04,22,00,17,12.70
2016,04,22,00,18,12.60
2016,04,22,00,19,12.60
2016,04,22,00,20,12.60
2016,04,22,00,21,12.60
2016,04,22,00,22,12.60
2016,04,22,00,23,12.60
2016,04,22,00,24,12.50
2016,04,22,00,25,12.50
2016,04,22,00,26,12.40
2016,04,22,00,27,12.40
2016,04,22,00,28,12.40
2016,04,22,00,29,12.40
2016,04,22,00,30,12.40
2016,04,22,00,31,12.30
2016,04,22,00,32,12.30
2016,04,22,00,33,12.30
2016,04,22,00,34,12.30
2016,04,22,00,35,12.30
2016,04,22,00,36,12.40
2016,04,22,00,37,12.40
2016,04,22,00,38,12.40
2016,04,22,00,39,12.40
2016,04,22,00,40,12.40
2016,04,22,00,41,12.40
2016,04,22,00,42,12.40
2016,04,22,00,43,12.40
2016,04,22,00,44,12.40
2016,04,22,00,45,12.50
2016,04,22,00,46,12.50
2016,04,22,00,47,12.50
2016,04,22,00,48,12.50
2016,04,22,00,49,12.50
2016,04,22,00,50,12.50
2016,04,22,00,51,12.50
2016,04,22,00,52,12.50
2016,04,22,00,53,12.50
2016,04,22,00,54,12.50
2016,04,22,00,55,12.40
2016,04,22,00,56,12.40
2016,04,22,00,57,12.40
2016,04,22,00,58,12.40
2016,04,22,00,59,12.40
2016,04,22,01,00,12.40
2016,04,22,01,01,12.40
2016,04,22,01,02,12.40
2016,04,22,01,03,12.40
2016,04,22,01,04,12.40
2016,04,22,01,05,12.30
2016,04,22,01,06,12.30
2016,04,22,01,07,12.30
2016,04,22,01,08,12.30
2016,04,22,01,09,12.30
2016,04,22,01,10,12.20
2016,04,22,01,11,12.20
2016,04,22,01,12,12.20
2016,04,22,01,13,12.10
2016,04,22,01,14,12.10
2016,04,22,01,15,12.10
2016,04,22,01,16,12.00
2016,04,22,01,17,12.00
2016,04,22,01,18,12.00
2016,04,22,01,19,11.90
2016,04,22,01,20,11.90
2016,04,22,01,21,11.90
2016,04,22,01,22,11.90
2016,04,22,01,23,11.80
2016,04,22,01,24,11.80
2016,04,22,01,25,11.80
2016,04,22,01,26,11.80
2016,04,22,01,27,11.80
2016,04,22,01,28,11.70
2016,04,22,01,29,11.70
2016,04,22,01,30,11.70
2016,04,22,01,31,11.70
2016,04,22,01,32,11.70
2016,04,22,01,33,11.70
2016,04,22,01,34,11.60
2016,04,22,01,35,11.60
2016,04,22,01,36,11.60
2016,04,22,01,37,11.60
2016,04,22,01,38,11.50
2016,04,22,01,39,11.50
2016,04,22,01,40,11.50
2016,04,22,01,41,11.40
2016,04,22,01,42,11.40
2016,04,22,01,43,11.40
2016,04,22,01,44,11.40
2016,04,22,01,45,11.40
2016,04,22,01,46,11.40
2016,04,22,01,47,11.40
2016,04,22,01,48,11.30
2016,04,22,01,49,11.30
2016,04,22,01,50,11.30
2016,04,22,01,51,11.30
2016,04,22,01,52,11.30
2016,04,22,01,53,11.30
2016,04,22,01,54,11.30
2016,04,22,01,55,11.30
2016,04,22,01,56,11.30
2016,04,22,01,57,11.30
2016,04,22,01,58,11.30
2016,04,22,01,59,11.30
2016,04,22,02,00,11.30
2016,04,22,02,01,11.30
2016,04,22,02,02,11.30
2016,04,22,02,03,11.20
2016,04,22,02,04,11.20
2016,04,22,02,05,11.20
2016,04,22,02,06,11.20
2016,04,22,02,07,11.20
2016,04,22,02,08,11.20
2016,04,22,02,09,11.20
2016,04,22,02,10,11.20
2016,04,22,02,11,11.20
2016,04,22,02,12,11.10
2016,04,22,02,13,11.10
2016,04,22,02,14,11.10
2016,04,22,02,15,11.10
2016,04,22,02,16,11.10
2016,04,22,02,17,11.10
2016,04,22,02,18,11.10
2016,04,22,02,19,11.10
2016,04,22,02,20,11.10
2016,04,22,02,21,11.10
2016,04,22,02,22,11.10
2016,04,22,02,23,11.10
2016,04,22,02,24,11.10
2016,04,22,02,25,11.10
2016,04,22,02,26,11.10
2016,04,22,02,27,11.10
2016,04,22,02,28,11.10
2016,04,22,02,29,11.10
2016,04,22,02,30,11.10
2016,04,22,02,31,11.10
2016,04,22,02,32,11.10
2016,04,22,02,33,11.10
2016,04,22,02,34,11.10
2016,04,22,02,35,11.10
2016,04,22,02,36,11.10
2016,04,22,02,37,11.20
2016,04,22,02,38,11.20
2016,04,22,02,39,11.20
2016,04,22,02,40,11.20
2016,04,22,02,41,11.20
2016,04,22,02,42,11.20
2016,04,22,02,43,11.20
2016,04,22,02,44,11.10
2016,04,22,02,45,11.10
2016,04,22,02,46,11.10
2016,04,22,02,47,11.10
2016,04,22,02,48,11.10
2016,04,22,02,49,11.10
2016,04,22,02,50,11.10
2016,04,22,02,51,11.10
2016,04,22,02,52,11.10
2016,04,22,02,53,11.10
2016,04,22,02,54,11.10
2016,04,22,02,55,11.10
2016,04,22,02,56,11.10
2016,04,22,02,57,11.00
2016,04,22,02,58,11.00
2016,04,22,02,59,11.00
2016,04,22,03,00,11.00
2016,04,22,03,01,11.00
2016,04,22,03,02,10.90
2016,04,22,03,03,10.90
2016,04,22,03,04,10.90
2016,04,22,03,05,10.90
2016,04,22,03,06,10.90
2016,04,22,03,07,10.90
2016,04,22,03,08,11.00
2016,04,22,03,09,11.00
2016,04,22,03,10,11.00
2016,04,22,03,11,11.00
2016,04,22,03,12,11.10
2016,04,22,03,13,11.10
2016,04,22,03,14,11.00
2016,04,22,03,15,11.00
2016,04,22,03,16,11.00
2016,04,22,03,17,11.00
2016,04,22,03,18,11.00
2016,04,22,03,19,11.00
2016,04,22,03,20,11.00
2016,04,22,03,21,11.00
2016,04,22,03,22,11.00
2016,04,22,03,23,11.00
2016,04,22,03,24,11.00
2016,04,22,03,25,10.90
2016,04,22,03,26,10.90
2016,04,22,03,27,10.90
2016,04,22,03,28,10.90
2016,04,22,03,29,10.90
2016,04,22,03,30,10.90
2016,04,22,03,31,10.90
2016,04,22,03,32,10.90
2016,04,22,03,33,10.90
2016,04,22,03,34,10.90
2016,04,22,03,35,10.90
2016,04,22,03,36,10.90
2016,04,22,03,37,10.80
2016,04,22,03,38,10.80
2016,04,22,03,39,10.80
2016,04,22,03,40,10.80
2016,04,22,03,41,10.80
2016,04,22,03,42,10.90
2016,04,22,03,43,10.90
2016,04,22,03,44,10.90
2016,04,22,03,45,10.90
2016,04,22,03,46,11.00
2016,04,22,03,47,11.00
2016,04,22,03,48,11.00
2016,04,22,03,49,11.10
2016,04,22,03,50,11.10
2016,04,22,03,51,11.10
2016,04,22,03,52,11.10
2016,04,22,03,53,11.10
2016,04,22,03,54,11.10
2016,04,22,03,55,11.10
2016,04,22,03,56,11.20
2016,04,22,03,57,11.20
2016,04,22,03,58,11.20
2016,04,22,03,59,11.20
2016,04,22,04,00,11.20
2016,04,22,04,01,11.20
2016,04,22,04,02,11.20
2016,04,22,04,03,11.20
2016,04,22,04,04,11.20
2016,04,22,04,05,11.30
2016,04,22,04,06,11.30
2016,04,22,04,07,11.30
2016,04,22,04,08,11.30
2016,04,22,04,09,11.30
2016,04,22,04,10,11.30
2016,04,22,04,11,11.30
2016,04,22,04,12,11.30
2016,04,22,04,13,11.30
2016,04,22,04,14,11.30
2016,04,22,04,15,11.40
2016,04,22,04,16,11.40
2016,04,22,04,17,11.30
2016,04,22,04,18,11.30
2016,04,22,04,19,11.30
2016,04,22,04,20,11.30
2016,04,22,04,21,11.30
2016,04,22,04,22,11.30
2016,04,22,04,23,11.30
2016,04,22,04,24,11.30
2016,04,22,04,25,11.30
2016,04,22,04,26,11.30
2016,04,22,04,27,11.30
2016,04,22,04,28,11.30
2016,04,22,04,29,11.30
2016,04,22,04,30,11.30
2016,04,22,04,31,11.30
2016,04,22,04,32,11.30
2016,04,22,04,33,11.30
2016,04,22,04,34,11.30
2016,04,22,04,35,11.30
2016,04,22,04,36,11.30
2016,04,22,04,37,11.30
2016,04,22,04,38,11.30
2016,04,22,04,39,11.40
2016,04,22,04,40,11.40
2016,04,22,04,41,11.40
2016,04,22,04,42,11.50
2016,04,22,04,43,11.60
2016,04,22,04,44,11.60
2016,04,22,04,45,11.70
2016,04,22,04,46,11.80
2016,04,22,04,47,11.80
2016,04,22,04,48,11.80
2016,04,22,04,49,11.90
2016,04,22,04,50,11.90
2016,04,22,04,51,11.90
2016,04,22,04,52,12.00
2016,04,22,04,53,12.00
2016,04,22,04,54,12.00
2016,04,22,04,55,12.00
2016,04,22,04,56,12.00
2016,04,22,04,57,12.10
2016,04,22,04,58,12.00
2016,04,22,04,59,12.00
2016,04,22,05,00,12.00
2016,04,22,05,01,12.00
2016,04,22,05,02,11.90
2016,04,22,05,03,11.90
2016,04,22,05,04,11.90
2016,04,22,05,05,11.90
2016,04,22,05,06,11.80
2016,04,22,05,07,11.80
2016,04,22,05,08,11.80
2016,04,22,05,09,11.80
2016,04,22,05,10,11.80
2016,04,22,05,11,11.80
2016,04,22,05,12,11.80
2016,04,22,05,13,11.80
2016,04,22,05,14,11.80
2016,04,22,05,15,11.80
2016,04,22,05,16,11.80
2016,04,22,05,17,11.90
2016,04,22,05,18,11.90
2016,04,22,05,19,12.00
2016,04,22,05,20,12.00
2016,04,22,05,21,12.10
2016,04,22,05,22,12.10
2016,04,22,05,23,12.20
2016,04,22,05,24,12.20
2016,04,22,05,25,12.20
2016,04,22,05,26,12.20
2016,04,22,05,27,12.20
2016,04,22,05,28,12.30
2016,04,22,05,29,12.30
2016,04,22,05,30,12.30
2016,04,22,05,31,12.30
2016,04,22,05,32,12.30
2016,04,22,05,33,12.40
2016,04,22,05,34,12.40
2016,04,22,05,35,12.40
2016,04,22,05,36,12.40
2016,04,22,05,37,12.40
2016,04,22,05,38,12.50
2016,04,22,05,39,12.50
2016,04,22,05,40,12.50
2016,04,22,05,41,12.50
2016,04,22,05,42,12.50
2016,04,22,05,43,12.50
2016,04,22,05,44,12.50
2016,04,22,05,45,12.50
2016,04,22,05,46,12.50
2016,04,22,05,47,12.50
2016,04,22,05,48,12.50
2016,04,22,05,49,12.50
2016,04,22,05,50,12.40
2016,04,22,05,51,12.40
2016,04,22,05,52,12.40
2016,04,22,05,53,12.40
2016,04,22,05,54,12.40
2016,04,22,05,55,12.40
2016,04,22,05,56,12.40
2016,04,22,05,57,12.40
2016,04,22,05,58,12.40
2016,04,22,05,59,12.40
2016,04,22,06,00,12.40
2016,04,22,06,01,12.40
2016,04,22,06,02,12.40
2016,04,22,06,03,12.40
2016,04,22,06,04,12.40
2016,04,22,06,05,12.40
2016,04,22,06,06,12.40
2016,04,22,06,07,12.40
2016,04,22,06,08,12.30
2016,04,22,06,09,12.30
2016,04,22,06,10,12.30
2016,04,22,06,11,12.30
2016,04,22,06,12,12.30
2016,04,22,06,13,12.40
2016,04,22,06,14,12.40
2016,04,22,06,15,12.40
2016,04,22,06,16,12.40
2016,04,22,06,17,12.40
2016,04,22,06,18,12.40
2016,04,22,06,19,12.40
2016,04,22,06,20,12.40
2016,04,22,06,21,12.40
2016,04,22,06,22,12.50
2016,04,22,06,23,12.50
2016,04,22,06,24,12.50
2016,04,22,06,25,12.50
2016,04,22,06,26,12.50
2016,04,22,06,27,12.50
2016,04,22,06,28,12.50
2016,04,22,06,29,12.50
2016,04,22,06,30,12.50
2016,04,22,06,31,12.50
2016,04,22,06,32,12.50
2016,04,22,06,33,12.50
2016,04,22,06,34,12.50
2016,04,22,06,35,12.50
2016,04,22,06,36,12.50
2016,04,22,06,37,12.50
2016,04,22,06,38,12.40
2016,04,22,06,39,12.40
2016,04,22,06,40,12.40
2016,04,22,06,41,12.30
2016,04,22,06,42,12.30
2016,04,22,06,43,12.30
2016,04,22,06,44,12.30
2016,04,22,06,45,12.30
2016,04,22,06,46,12.30
2016,04,22,06,47,12.20
2016,04,22,06,48,12.20
2016,04,22,06,49,12.20
2016,04,22,06,50,12.30
2016,04,22,06,51,12.30
2016,04,22,06,52,12.30
2016,04,22,06,53,12.30
2016,04,22,06,54,12.40
2016,04,22,06,55,12.40
2016,04,22,06,56,12.40
2016,04,22,06,57,12.50
2016,04,22,06,58,12.50
2016,04,22,06,59,12.60
2016,04,22,07,00,12.60
2016,04,22,07,01,12.60
2016,04,22,07,02,12.70
2016,04,22,07,03,12.70
2016,04,22,07,04,12.80
2016,04,22,07,05,12.80
2016,04,22,07,06,12.80
2016,04,22,07,07,12.80
2016,04,22,07,08,12.80
2016,04,22,07,09,12.80
2016,04,22,07,10,12.80
2016,04,22,07,11,12.80
2016,04,22,07,12,12.80
2016,04,22,07,13,12.80
2016,04,22,07,14,12.80
2016,04,22,07,15,12.80
2016,04,22,07,16,12.80
2016,04,22,07,17,12.80
2016,04,22,07,18,12.80
2016,04,22,07,19,12.80
2016,04,22,07,20,12.80
2016,04,22,07,21,12.80
2016,04,22,07,22,12.90
2016,04,22,07,23,12.90
2016,04,22,07,24,12.90
2016,04,22,07,25,12.90
2016,04,22,07,26,12.90
2016,04,22,07,27,12.90
2016,04,22,07,28,12.90
2016,04,22,07,29,12.90
2016,04,22,07,30,12.90
2016,04,22,07,31,12.90
2016,04,22,07,32,12.90
2016,04,22,07,33,12.90
2016,04,22,07,34,12.90
2016,04,22,07,35,13.00
2016,04,22,07,36,13.00
2016,04,22,07,37,13.00
2016,04,22,07,38,13.00
2016,04,22,07,39,13.00
2016,04,22,07,40,13.00
2016,04,22,07,41,13.00
2016,04,22,07,42,13.00
2016,04,22,07,43,13.00
2016,04,22,07,44,13.00
2016,04,22,07,45,13.00
2016,04,22,07,46,12.90
2016,04,22,07,47,12.90
2016,04,22,07,48,12.90
2016,04,22,07,49,12.90
2016,04,22,07,50,12.80
2016,04,22,07,51,12.80
2016,04,22,07,52,12.80
2016,04,22,07,53,12.80
2016,04,22,07,54,12.70
2016,04,22,07,55,12.70
2016,04,22,07,56,12.70
2016,04,22,07,57,12.70
2016,04,22,07,58,12.70
2016,04,22,07,59,12.60
2016,04,22,08,00,12.60
2016,04,22,08,01,12.60
2016,04,22,08,02,12.60
2016,04,22,08,03,12.50
2016,04,22,08,04,12.50
2016,04,22,08,05,12.50
2016,04,22,08,06,12.50
2016,04,22,08,07,12.40
2016,04,22,08,08,12.40
2016,04,22,08,09,12.40
2016,04,22,08,10,12.40
2016,04,22,08,11,12.40
2016,04,22,08,12,12.40
2016,04,22,08,13,12.40
2016,04,22,08,14,12.40
2016,04,22,08,15,12.40
2016,04,22,08,16,12.40
2016,04,22,08,17,12.50
2016,04,22,08,18,12.50
2016,04,22,08,19,12.50
2016,04,22,08,20,12.60
2016,04,22,08,21,12.60
2016,04,22,08,22,12.60
2016,04,22,08,23,12.60
2016,04,22,08,24,12.60
2016,04,22,08,25,12.60
2016,04,22,08,26,12.60
2016,04,22,08,27,12.60
2016,04,22,08,28,12.60
2016,04,22,08,29,12.50
2016,04,22,08,30,12.50
2016,04,22,08,31,12.50
2016,04,22,08,32,12.50
2016,04,22,08,33,12.50
2016,04,22,08,34,12.60
2016,04,22,08,35,12.60
2016,04,22,08,36,12.60
2016,04,22,08,37,12.60
2016,04,22,08,38,12.60
2016,04,22,08,39,12.60
2016,04,22,08,40,12.60
2016,04,22,08,41,12.60
2016,04,22,08,42,12.60
2016,04,22,08,43,12.60
2016,04,22,08,44,12.60
2016,04,22,08,45,12.70
2016,04,22,08,46,12.70
2016,04,22,08,47,12.70
2016,04,22,08,48,12.70
2016,04,22,08,49,12.70
2016,04,22,08,50,12.70
2016,04,22,08,51,12.80
2016,04,22,08,52,12.80
2016,04,22,08,53,12.80
2016,04,22,08,54,12.80
2016,04,22,08,55,12.80
2016,04,22,08,56,12.80
2016,04,22,08,57,12.80
2016,04,22,08,58,12.80
2016,04,22,08,59,12.80
2016,04,22,09,00,12.80
2016,04,22,09,01,12.90
2016,04,22,09,02,12.90
2016,04,22,09,03,12.90
2016,04,22,09,04,13.00
2016,04,22,09,05,13.10
2016,04,22,09,06,13.20
2016,04,22,09,07,13.20
2016,04,22,09,08,13.30
2016,04,22,09,09,13.40
2016,04,22,09,10,13.40
2016,04,22,09,11,13.50
2016,04,22,09,12,13.60
2016,04,22,09,13,13.60
2016,04,22,09,14,13.70
2016,04,22,09,15,13.80
2016,04,22,09,16,13.80
2016,04,22,09,17,13.90
2016,04,22,09,18,14.00
2016,04,22,09,19,14.00
2016,04,22,09,20,14.10
2016,04,22,09,21,14.10
2016,04,22,09,22,14.20
2016,04,22,09,23,14.20
2016,04,22,09,24,14.30
2016,04,22,09,25,14.30
2016,04,22,09,26,14.40
2016,04,22,09,27,14.40
2016,04,22,09,28,14.40
2016,04,22,09,29,14.40
2016,04,22,09,30,14.40
2016,04,22,09,31,14.40
2016,04,22,09,32,14.40
2016,04,22,09,33,14.40
2016,04,22,09,34,14.40
2016,04,22,09,35,14.40
2016,04,22,09,36,14.40
2016,04,22,09,37,14.40
2016,04,22,09,38,14.40
2016,04,22,09,39,14.40
2016,04,22,09,40,14.40
2016,04,22,09,41,14.40
2016,04,22,09,42,14.40
2016,04,22,09,43,14.40
2016,04,22,09,44,14.40
2016,04,22,09,45,14.30
2016,04,22,09,46,14.30
2016,04,22,09,47,14.30
2016,04,22,09,48,14.30
2016,04,22,09,49,14.30
2016,04,22,09,50,14.30
2016,04,22,09,51,14.40
2016,04,22,09,52,14.40
2016,04,22,09,53,14.40
2016,04,22,09,54,14.40
2016,04,22,09,55,14.40
2016,04,22,09,56,14.40
2016,04,22,09,57,14.40
2016,04,22,09,58,14.40
2016,04,22,09,59,14.40
2016,04,22,10,00,14.40
2016,04,22,10,01,14.40
2016,04,22,10,02,14.40
2016,04,22,10,03,14.40
2016,04,22,10,04,14.40
2016,04,22,10,05,14.40
2016,04,22,10,06,14.40
2016,04,22,10,07,14.40
2016,04,22,10,08,14.40
2016,04,22,10,09,14.30
2016,04,22,10,10,14.30
2016,04,22,10,11,14.30
2016,04,22,10,12,14.20
2016,04,22,10,13,14.20
2016,04,22,10,14,14.10
2016,04,22,10,15,14.10
2016,04,22,10,16,14.10
2016,04,22,10,17,14.10
2016,04,22,10,18,14.10
2016,04,22,10,19,14.10
2016,04,22,10,20,14.10
2016,04,22,10,21,14.10
2016,04,22,10,22,14.10
2016,04,22,10,23,14.10
2016,04,22,10,24,14.10
2016,04,22,10,25,14.20
2016,04,22,10,26,14.20
2016,04,22,10,27,14.20
2016,04,22,10,28,14.20
2016,04,22,10,29,14.20
2016,04,22,10,30,14.20
2016,04,22,10,31,14.20
2016,04,22,10,32,14.20
2016,04,22,10,33,14.30
2016,04,22,10,34,14.30
2016,04,22,10,35,14.30
2016,04,22,10,36,14.30
2016,04,22,10,37,14.30
2016,04,22,10,38,14.30
2016,04,22,10,39,14.30
2016,04,22,10,40,14.30
2016,04,22,10,41,14.30
2016,04,22,10,42,14.30
2016,04,22,10,43,14.30
2016,04,22,10,44,14.40
2016,04,22,10,45,14.40
2016,04,22,10,46,14.40
2016,04,22,10,47,14.40
2016,04,22,10,48,14.40
2016,04,22,10,49,14.50
2016,04,22,10,50,14.50
2016,04,22,10,51,14.60
2016,04,22,10,52,14.60
2016,04,22,10,53,14.60
2016,04,22,10,54,14.70
2016,04,22,10,55,14.70
2016,04,22,10,56,14.70
2016,04,22,10,57,14.70
2016,04,22,10,58,14.80
2016,04,22,10,59,14.80
2016,04,22,11,00,14.80
2016,04,22,11,01,14.80
2016,04,22,11,02,14.90
2016,04,22,11,03,14.90
2016,04,22,11,04,14.90
2016,04,22,11,05,14.90
2016,04,22,11,06,15.00
2016,04,22,11,07,15.00
2016,04,22,11,08,15.10
2016,04,22,11,09,15.10
2016,04,22,11,10,15.10
2016,04,22,11,11,15.20
2016,04,22,11,12,15.20
2016,04,22,11,13,15.20
2016,04,22,11,14,15.30
2016,04,22,11,15,15.30
2016,04,22,11,16,15.30
2016,04,22,11,17,15.40
2016,04,22,11,18,15.40
2016,04,22,11,19,15.40
2016,04,22,11,20,15.40
2016,04,22,11,21,15.40
2016,04,22,11,22,15.50
2016,04,22,11,23,15.50
2016,04,22,11,24,15.60
2016,04,22,11,25,15.60
2016,04,22,11,26,15.60
2016,04,22,11,27,15.70
2016,04,22,11,28,15.70
2016,04,22,11,29,15.70
2016,04,22,11,30,15.80
2016,04,22,11,31,15.80
2016,04,22,11,32,15.80
2016,04,22,11,33,15.90
2016,04,22,11,34,15.90
2016,04,22,11,35,15.90
2016,04,22,11,36,16.00
2016,04,22,11,37,16.00
2016,04,22,11,38,16.10
2016,04,22,11,39,16.10
2016,04,22,11,40,16.20
2016,04,22,11,41,16.20
2016,04,22,11,42,16.30
2016,04,22,11,43,16.30
2016,04,22,11,44,16.30
2016,04,22,11,45,16.40
2016,04,22,11,46,16.40
2016,04,22,11,47,16.40
2016,04,22,11,48,16.50
2016,04,22,11,49,16.50
2016,04,22,11,50,16.50
2016,04,22,11,51,16.60
2016,04,22,11,52,16.60
2016,04,22,11,53,16.60
2016,04,22,11,54,16.60
2016,04,22,11,55,16.60
2016,04,22,11,56,16.60
2016,04,22,11,57,16.60
2016,04,22,11,58,16.60
2016,04,22,11,59,16.60
2016,04,22,12,00,16.60
2016,04,22,12,01,16.60
2016,04,22,12,02,16.60
2016,04,22,12,03,16.60
2016,04,22,12,04,16.50
2016,04,22,12,05,16.50
2016,04,22,12,06,16.50
2016,04,22,12,07,16.50
2016,04,22,12,08,16.50
2016,04,22,12,09,16.50
2016,04,22,12,10,16.60
2016,04,22,12,11,16.60
2016,04,22,12,12,16.60
2016,04,22,12,13,16.60
2016,04,22,12,14,16.70
2016,04,22,12,15,16.70
2016,04,22,12,16,16.70
2016,04,22,12,17,16.70
2016,04,22,12,18,16.70
2016,04,22,12,19,16.80
2016,04,22,12,20,16.80
2016,04,22,12,21,16.80
2016,04,22,12,22,16.80
2016,04,22,12,23,16.80
2016,04,22,12,24,16.80
2016,04,22,12,25,16.80
2016,04,22,12,26,16.80
2016,04,22,12,27,16.80
2016,04,22,12,28,16.80
2016,04,22,12,29,16.80
2016,04,22,12,30,16.80
2016,04,22,12,31,16.80
2016,04,22,12,32,16.70
2016,04,22,12,33,16.70
2016,04,22,12,34,16.70
2016,04,22,12,35,16.70
2016,04,22,12,36,16.70
2016,04,22,12,37,16.70
2016,04,22,12,38,16.70
2016,04,22,12,39,16.70
2016,04,22,12,40,16.70
2016,04,22,12,41,16.70
2016,04,22,12,42,16.60
2016,04,22,12,43,16.60
2016,04,22,12,44,16.60
2016,04,22,12,45,16.60
2016,04,22,12,46,16.70
2016,04,22,12,47,16.70
2016,04,22,12,48,16.70
2016,04,22,12,49,16.70
2016,04,22,12,50,16.70
2016,04,22,12,51,16.70
2016,04,22,12,52,16.80
2016,04,22,12,53,16.80
2016,04,22,12,54,16.80
2016,04,22,12,55,16.80
2016,04,22,12,56,16.90
2016,04,22,12,57,16.90
2016,04,22,12,58,16.90
2016,04,22,12,59,16.90
2016,04,22,13,00,16.90
2016,04,22,13,01,16.90
2016,04,22,13,02,16.90
2016,04,22,13,03,16.90
2016,04,22,13,04,16.90
2016,04,22,13,05,16.90
2016,04,22,13,06,16.90
2016,04,22,13,07,16.90
2016,04,22,13,08,16.90
2016,04,22,13,09,16.90
2016,04,22,13,10,16.90
2016,04,22,13,11,16.90
2016,04,22,13,12,16.90
2016,04,22,13,13,16.90
2016,04,22,13,14,16.80
2016,04,22,13,15,16.80
2016,04,22,13,16,16.80
2016,04,22,13,17,16.70
2016,04,22,13,18,16.70
2016,04,22,13,19,16.70
2016,04,22,13,20,16.70
2016,04,22,13,21,16.60
2016,04,22,13,22,16.60
2016,04,22,13,23,16.60
2016,04,22,13,24,16.60
2016,04,22,13,25,16.60
2016,04,22,13,26,16.60
2016,04,22,13,27,16.60
2016,04,22,13,28,16.60
2016,04,22,13,29,16.60
2016,04,22,13,30,16.60
2016,04,22,13,31,16.60
2016,04,22,13,32,16.60
2016,04,22,13,33,16.60
2016,04,22,13,34,16.60
2016,04,22,13,35,16.60
2016,04,22,13,36,16.50
2016,04,22,13,37,16.50
2016,04,22,13,38,16.40
2016,04,22,13,39,16.30
2016,04,22,13,40,16.20
2016,04,22,13,41,16.10
2016,04,22,13,42,16.00
2016,04,22,13,43,15.90
2016,04,22,13,44,15.80
2016,04,22,13,45,15.70
2016,04,22,13,46,15.70
2016,04,22,13,47,15.60
2016,04,22,13,48,15.60
2016,04,22,13,49,15.50
2016,04,22,13,50,15.50
2016,04,22,13,51,15.40
2016,04,22,13,52,15.40
2016,04,22,13,53,15.30
2016,04,22,13,54,15.30
2016,04,22,13,55,15.20
2016,04,22,13,56,15.20
2016,04,22,13,57,15.10
2016,04,22,13,58,15.00
2016,04,22,13,59,15.00
2016,04,22,14,00,14.90
2016,04,22,14,01,14.90
2016,04,22,14,02,14.90
2016,04,22,14,03,14.90
2016,04,22,14,04,14.90
2016,04,22,14,05,14.90
2016,04,22,14,06,14.90
2016,04,22,14,07,15.00
2016,04,22,14,08,15.00
2016,04,22,14,09,15.00
2016,04,22,14,10,15.00
2016,04,22,14,11,15.10
2016,04,22,14,12,15.10
2016,04,22,14,13,15.10
2016,04,22,14,14,15.10
2016,04,22,14,15,15.10
2016,04,22,14,16,15.00
2016,04,22,14,17,15.00
2016,04,22,14,18,15.00
2016,04,22,14,19,15.00
2016,04,22,14,20,14.90
2016,04,22,14,21,14.90
2016,04,22,14,22,14.90
2016,04,22,14,23,14.90
2016,04,22,14,24,14.90
2016,04,22,14,25,14.90
2016,04,22,14,26,14.90
2016,04,22,14,27,14.90
2016,04,22,14,28,14.80
2016,04,22,14,29,14.90
2016,04,22,14,30,14.80
2016,04,22,14,31,14.80
2016,04,22,14,32,14.80
2016,04,22,14,33,14.80
2016,04,22,14,34,14.80
2016,04,22,14,35,14.80
2016,04,22,14,36,14.80
2016,04,22,14,37,14.70
2016,04,22,14,38,14.70
2016,04,22,14,39,14.70
2016,04,22,14,40,14.70
2016,04,22,14,41,14.70
2016,04,22,14,42,14.70
2016,04,22,14,43,14.70
2016,04,22,14,44,14.70
2016,04,22,14,45,14.70
2016,04,22,14,46,14.70
2016,04,22,14,47,14.70
2016,04,22,14,48,14.70
2016,04,22,14,49,14.70
2016,04,22,14,50,14.70
2016,04,22,14,51,14.70
2016,04,22,14,52,14.70
2016,04,22,14,53,14.70
2016,04,22,14,54,14.70
2016,04,22,14,55,14.70
2016,04,22,14,56,14.70
2016,04,22,14,57,14.70
2016,04,22,14,58,14.70
2016,04,22,14,59,14.70
2016,04,22,15,00,14.70
2016,04,22,15,01,14.70
2016,04,22,15,02,14.70
2016,04,22,15,03,14.70
2016,04,22,15,04,14.70
2016,04,22,15,05,14.70
2016,04,22,15,06,14.70
2016,04,22,15,07,14.80
2016,04,22,15,08,14.80
2016,04,22,15,09,14.80
2016,04,22,15,10,14.80
2016,04,22,15,11,14.80
2016,04,22,15,12,14.80
2016,04,22,15,13,14.80
2016,04,22,15,14,14.80
2016,04,22,15,15,14.80
2016,04,22,15,16,14.80
2016,04,22,15,17,14.80
2016,04,22,15,18,14.90
2016,04,22,15,19,14.90
2016,04,22,15,20,14.90
2016,04,22,15,21,14.90
2016,04,22,15,22,14.90
2016,04,22,15,23,14.90
2016,04,22,15,24,14.90
2016,04,22,15,25,14.90
2016,04,22,15,26,14.90
2016,04,22,15,27,15.00
2016,04,22,15,28,15.00
2016,04,22,15,29,15.00
2016,04,22,15,30,15.00
2016,04,22,15,31,15.00
2016,04,22,15,32,15.10
2016,04,22,15,33,15.10
2016,04,22,15,34,15.10
2016,04,22,15,35,15.10
2016,04,22,15,36,15.10
2016,04,22,15,37,15.10
2016,04,22,15,38,15.10
2016,04,22,15,39,15.10
2016,04,22,15,40,15.10
2016,04,22,15,41,15.10
2016,04,22,15,42,15.10
2016,04,22,15,43,15.10
2016,04,22,15,44,15.10
2016,04,22,15,45,15.10
2016,04,22,15,46,15.10
2016,04,22,15,47,15.10
2016,04,22,15,48,15.10
2016,04,22,15,49,15.20
2016,04,22,15,50,15.20
2016,04,22,15,51,15.20
2016,04,22,15,52,15.20
2016,04,22,15,53,15.20
2016,04,22,15,54,15.20
2016,04,22,15,55,15.10
2016,04,22,15,56,15.10
2016,04,22,15,57,15.10
2016,04,22,15,58,15.10
2016,04,22,15,59,15.10
2016,04,22,16,00,15.10
2016,04,22,16,01,15.10
2016,04,22,16,02,15.10
2016,04,22,16,03,15.00
2016,04,22,16,04,15.00
2016,04,22,16,05,15.00
2016,04,22,16,06,15.00
2016,04,22,16,07,15.00
2016,04,22,16,08,15.00
2016,04,22,16,09,15.00
2016,04,22,16,10,15.00
2016,04,22,16,11,15.00
2016,04,22,16,12,15.00
2016,04,22,16,13,15.00
2016,04,22,16,14,15.00
2016,04,22,16,15,15.00
2016,04,22,16,16,15.00
2016,04,22,16,17,15.00
2016,04,22,16,18,15.00
2016,04,22,16,19,15.00
2016,04,22,16,20,15.00
2016,04,22,16,21,15.00
2016,04,22,16,22,15.00
2016,04,22,16,23,15.00
2016,04,22,16,24,15.00
2016,04,22,16,25,15.00
2016,04,22,16,26,15.00
2016,04,22,16,27,15.10
2016,04,22,16,28,15.10
2016,04,22,16,29,15.10
2016,04,22,16,30,15.10
2016,04,22,16,31,15.10
2016,04,22,16,32,15.10
2016,04,22,16,33,15.10
2016,04,22,16,34,15.10
2016,04,22,16,35,15.10
2016,04,22,16,36,15.10
2016,04,22,16,37,15.10
2016,04,22,16,38,15.10
2016,04,22,16,39,15.10
2016,04,22,16,40,15.10
2016,04,22,16,41,15.10
2016,04,22,16,42,15.10
2016,04,22,16,43,15.10
2016,04,22,16,44,15.10
2016,04,22,16,45,15.10
2016,04,22,16,46,15.10
2016,04,22,16,47,15.10
2016,04,22,16,48,15.10
2016,04,22,16,49,15.10
2016,04,22,16,50,15.10
2016,04,22,16,51,15.10
2016,04,22,16,52,15.10
2016,04,22,16,53,15.10
2016,04,22,16,54,15.10
2016,04,22,16,55,15.10
2016,04,22,16,56,15.10
2016,04,22,16,57,15.10
2016,04,22,16,58,15.10
2016,04,22,16,59,15.10
2016,04,22,17,00,15.10
2016,04,22,17,01,15.10
2016,04,22,17,02,15.10
2016,04,22,17,03,15.10
2016,04,22,17,04,15.10
2016,04,22,17,05,15.10
2016,04,22,17,06,15.10
2016,04,22,17,07,15.00
2016,04,22,17,08,15.00
2016,04,22,17,09,15.00
2016,04,22,17,10,14.90
2016,04,22,17,11,14.90
2016,04,22,17,12,14.90
2016,04,22,17,13,14.90
2016,04,22,17,14,14.90
2016,04,22,17,15,14.90
2016,04,22,17,16,14.80
2016,04,22,17,17,14.80
2016,04,22,17,18,14.80
2016,04,22,17,19,14.80